www.pogodaiklimat.ru

Погода и климат >> Архив погоды >> Россия >> Пермский край >> Кунгур


ПОГОДА в Кунгуре

  • Прогноз погоды в Кунгуре
  • Монитор погоды в Кунгуре

АРХИВ ПОГОДЫ в Кунгуре

Время (UTC), дата Ветер
(напр.,м/с)
 
Видим.   Явления Облачность Т
(С)
Тd
(С)
f
(%)
Тe
(С)
Тes
(С)
Комфортность P
(гПа)
Po
(гПа)
Тmin
(С)
Tmax
(С)
R
(мм)
R24
(мм)
S
(см)
03 10.09 штиль 0 500 м туман 4/0
[Ci fib]
+7.0 +6.3 95 +6 +7 1029.9 1011.4 +6.0 5
06 10.09 З 1 500 м туман 5/0
[Ci fib]
+10.1 +9.3 95 +10 +15 1012.1 1012.1
09 10.09 СЗ 2 50 км {туман} 5/3 600 м
[Sc Ci fib]
+16.0 +11.3 74 +16 +21 1030.0 1012.1
12 10.09 СЗ 3 50 км {туман} 8/3 600 м
[Sc Ci fib]
+17.2 +6.8 50 +17 +18 1029.0 1011.1
15 10.09 З 1 50 км 4/4 600 м
[Sc]
+10.5 +7.8 83 +10 +10 1029.8 1011.5 +18.2
18 10.09 штиль 0 50 км 2 балла +5.0 +4.1 94 +4 +4 1032.1 1013.3
21 10.09 штиль 0 50 км 3/0
[Ci fib]
+3.0 +2.2 94 +2 +2 1031.2 1012.4
00 11.09 ЮВ 1 50 км 2 балла +2.2 +1.5 95 0 0 1033.7 1014.7
03 11.09 штиль 0 50 км 5/0
[Ci fib]
+4.8 +4.1 95 +4 +4 1033.1 1014.3 +1.8
06 11.09 СЗ 1 50 км 5/0
[Ci fib]
+14.5 +8.4 67 +15 +18 1034.2 1016.0
09 11.09 СЗ 2 50 км 8/0 2000 м
[Ac trans Ci fib]
+18.7 +8.4 51 +20 +25 1031.8 1013.9
12 11.09 З 2 50 км 8/5 600 м
[Sc Ci fib]
+19.7 +8.1 47 +21 +22 комфорт 1032.5 1014.7
15 11.09 ЮЗ 2 50 км 6/3 600 м
[Sc Ci fib]
+14.4 +8.8 69 +14 +14 1030.6 1012.6 +21.2
18 11.09 штиль 0 50 км 4/0
[Ci fib]
+8.2 +7.0 92 +7 +7 1031.8 1013.3
21 11.09 штиль 0 50 км 5/0
[Ci fib]
+7.6 +6.7 94 +7 +7 1030.3 1011.8
00 12.09 штиль 0 50 км 5/0
[Ci fib]
+6.1 +5.4 95 +5 +5 1030.7 1012.0
03 12.09 штиль 0 50 км 5/0
[Ci fib]
+7.6 +6.9 95 +7 +7 1029.7 1011.2 +5.5
06 12.09 З 2 50 км 5/0
[Ci fib]
+17.5 +11.1 66 +18 +21 1029.9 1012.0
09 12.09 З 4 50 км 8/0
[Ci fib]
+21.1 +10.7 51 +23 +27 комфорт 1027.1 1009.4
12 12.09 З 3 50 км 8/3 600 м
[Sc Ci fib]
+21.5 +10.9 51 +23 +24 комфорт 1026.9 1009.3
15 12.09 ЮЗ 3 50 км 9/0 600 м
[Ac trans]
+17.1 +11.1 68 +17 +17 1025.6 1007.7 +22.0
18 12.09 штиль 0 50 км 8/0 2000 м
[Ac trans Ci fib]
+12.5 +10.1 85 +12 +12 1025.4 1007.3
21 12.09 Ю 1 50 км 8/0
[Ci fib]
+9.9 +8.6 92 +9 +9 1024.5 1006.3
00 13.09 Ю 1 50 км 8/4 600 м
[Sc Ci fib]
+9.0 +8.1 94 +8 +8 1025.1 1006.7 +8.7
03 13.09 ЮЗ 1 50 км 8/4 600 м
[Sc Ci fib]
+11.2 +10.1 93 +11 +11 1022.8 1004.6 +8.7
06 13.09 ЮЗ 3 50 км 8/0 2000 м
[Ac trans]
+16.2 +11.6 74 +16 +17 1021.8 1004.0
09 13.09 ЮЗ 3 50 км 6/0 2000 м
[Ac trans Ci fib]
+22.0 +11.1 50 +24 +28 комфорт 1019.6 1002.2
12 13.09 ЮЗ 3 50 км 6/0 2000 м
[Ac trans Ci fib]
+22.6 +10.4 46 +24 +25 комфорт 1020.1 1002.7
15 13.09 ЮЗ 3
{10}
50 км 8/5 600 м
[Cb calv Ac trans]
+17.5 +9.1 58 +18 +18 1017.7 1000.0 +22.8
18 13.09 штиль 0 50 км 8/5 600 м
[Sc Ac trans]
+11.6 +9.8 89 +11 +11 1019.4 1001.3
21 13.09 ЮВ 1 50 км 6/3 600 м
[Sc Ac trans]
+11.2 +9.5 89 +11 +11 1016.8 998.7
00 14.09 штиль 0 50 км 6/0 2000 м
[Ac trans Ci fib]
+9.0 +7.8 92 +8 +8 1016.9 998.7
03 14.09 Ю 1 50 км 6/0 2000 м
[Ac trans Ci fib]
+10.2 +9.1 93 +10 +10 1015.4 997.4 +8.3
06 14.09 Ю 3 50 км 5 баллов +17.1 +10.2 64 +17 +19 1016.4 998.7
09 14.09 ЮЗ 4 50 км 4/0
[Ci fib]
+22.3 +11.1 49 +24 +29 комфорт 1013.6 996.3
12 14.09 ЮЗ 4 50 км 4 балла +22.9 +9.6 43 +25 +25 комфорт 1013.3 996.0
15 14.09 Ю 3 50 км 3/3 600 м
[Sc]
+18.2 +9.3 56 +19 +19 1012.2 994.7 +24.0
18 14.09 Ю 3 50 км 5 баллов +15.4 +10.0 70 +15 +15 1012.4 994.7
21 14.09 Ю 3 50 км 5/5 600 м
[Sc]
+14.5 +7.9 65 +14 +14 1010.0 992.3
00 15.09 ЮЗ 1 50 км 7 баллов +12.2 +7.1 71 +12 +12 1011.2 993.3
03 15.09 Ю 2 50 км 8/8 600 м
[Sc]
+12.2 +6.7 69 +11 +11 1008.8 991.0 +10.1
06 15.09 ЮЗ 2 50 км 7 баллов +13.4 +7.8 69 +13 +14 1009.8 992.0
09 15.09 Ю 1 50 км 9/9 600 м
[Sc]
+15.4 +9.3 67 +16 +17 1007.9 990.2
12 15.09 ЮЗ 3 50 км {ливн. осадки} 9/9 600 м
[Cb calv]
+13.6 +10.6 82 +12 +13 1008.5 990.6
15 15.09 ЮЗ 2 50 км в посл. час ливневой дождь 8/8 600 м
[Cb calv]
+11.3 +9.7 90 +10 +10 1007.4 989.5 +16.1
18 15.09 Ю 1 50 км {ливн. осадки} 8/4 600 м
[Sc Ci fib]
+9.6 +8.4 92 +9 +9 1008.3 990.2
21 15.09 ЮЗ 1 50 км в посл. час ливневой дождь 8/8 600 м
[Cb calv]
+8.5 +7.7 95 +8 +8 1008.0 989.9
00 16.09 штиль 0 50 км {ливн. осадки} 8/8 600 м
[Cb calv]
+8.6 +7.5 93 +8 +8 1007.7 989.6
03 16.09 ЮЗ 1 4000 м дымка 8/6 600 м
[Sc Ci fib]
+5.6 +4.7 94 +4 +4 1008.2 989.9 +4.5 0.9
06 16.09 ЮЗ 2 50 км 7 баллов +9.2 +8.4 95 +7 +9 1007.3 989.3
09 16.09 ЮЗ 2 50 км 8/8 600 м
[Sc]
+13.6 +5.0 56 +13 +15 1004.1 986.4
12 16.09 ЮЗ 4 50 км 9 баллов +13.2 +4.9 57 +12 +12 1003.0 985.3
15 16.09 ЮЗ 2 50 км 9/9 600 м
[Sc]
+10.4 +5.1 70 +9 +9 1001.6 983.8 +15.0
18 16.09 ЮЗ 3 10 км слаб. ливневой дождь 9/9 600 м
[Cb calv]
+8.4 +7.1 92 +6 +6 999.8 981.9
21 16.09 Ю 3 50 км {ливн. осадки} 9/9 600 м
[Cb calv]
+8.1 +7.0 93 +5 +5 997.4 979.5
00 17.09 Ю 3 50 км {ливн. осадки} 9/9 600 м
[Cb calv]
+8.0 +7.1 94 +5 +5 996.7 978.8

 

Местоположение метеостанции Кунгур (Пермский край, Россия): широта 57.42 долгота 56.93 высота над уровнем моря 150 м.

В архиве по умолчанию представлена погода в Кунгуре за последнюю неделю. Архивные данные за месяц целиком и за предыдущие месяцы, начиная с января 2011 года, Вы можете получить, выбрав интересующий диапазон дат из раскрывающегося списка и нажав кнопку "Ввод!".


*Определитесь, кто Вы:
робот инопланетянин человек

Внимание! Время в таблицах - всемирное. Для получения местного времени необходимо прибавить поправку, которая равна 5 ч.

Смотрите также архив погоды в соседних городах и на ближайших метеорологических станциях:

Погода в Перми (Пермский край, Россия) (66 км)
Погода в Перми (Бахаревка) (Пермский край, Россия) (71 км)
Погода в Шамарах (Свердловская область, Россия) (78 км)
Погода в Перми (Гайва) (Пермский край, Россия) (84 км)
Погода в Осе (Пермский край, Россия) (92 км)
Погода в Лысьве (Пермский край, Россия) (93 км)
Погода в Оханске (Пермский край, Россия) (98 км)
Погода в Красноуфимске (Свердловская область, Россия) (100 км)
Погода в Октябрьском (Пермский край, Россия) (101 км)
Погода в Кыне (Пермский край, Россия) (112 км)

Пояснения к столбцам:

Ветер - указаны скорость ветра в м/с - средняя за 10 мин, порывы в срок и между сроками (в фигурных скобках) и направление, откуда дует ветер: С - северный, СВ - северо-восточный, В - восточный, ЮВ - юго-восточный, Ю - южный, ЮЗ - юго-западный, З - западный, СЗ - северо-западный.
Видимость - горизонтальная дальность видимости в метрах или километрах. При видимости от 1 до 10 км при отсутствии осадков обычно наблюдается дымка, при ухудшении видимости до 1 км и менее - туман. В сухую погоду видимость может ухудшаться дымом, пылью или мглою.
Явления - указаны атмосферные явления, наблюдавшиеся в срок или в последний час перед сроком; фигурными скобками обозначены явления, наблюдавшиеся между сроками (за 1-3 часа до срока); квадратными скобками обозначены град или гололедные отложения с указанием их диаметра в мм.
Облачность - указаны через наклонную черту общая и нижняя облачность в баллах и высота нижней границы облаков в метрах; квадратными скобками обозначены формы облаков: Ci - перистые, Cs - перисто-слоистые, Cc - перисто-кучевые, Ac - высококучевые, As - высокослоистые, Sc - слоисто-кучевые, Ns - слоисто-дождевые, Cu - кучевые, Cb - кучево-дождевые. Подробнее классификацию облаков см. в Атласе облаков (PDF).
T - Температура воздуха - температура, измеренная на высоте 2 м над землей.
Td - Температура точки росы - температура, при понижении до которой содержащийся в воздухе водяной пар достигнет насыщения.
f - Относительная влажность воздуха - влажноcть воздуха, измеренная на высоте 2 м над землей.
Te - Эффективная температура - температура, которую ощущает одетый по сезону человек в тени. Характеристика душности погоды. При расчете учитывается влияние влажности воздуха и скорости ветра на теплоощущения человека.
Tes - Эффективная температура на солнце - температура, которую ощущает человек, с поправкой на солнечный нагрев. Характеристика знойности погоды. Зависит от высоты солнца над горизонтом, облачности и скорости ветра. Ночью, в пасмурную погоду, а также при ветре 12 м/с и более поправка равна нулю.
P - Атмосферное давление - приведенное к уровню моря атмосферное давление.
Po - Атмосферное давление - измеренное на уровне метеостанции атмосферное давление.
Tmin - Минимальная температура - минимум температуры воздуха на высоте 2 м над землей.
Tmax - Максимальная температура - максимум температуры воздуха на высоте 2 м над землей.
R - Количество осадков - Количество выпавших осадков за период времени, мм. При наведении курсора мыши на число - период времени, за который выпало указанное количество осадков.
R24 - Количество осадков - Количество выпавших осадков за 24 часа, мм.
S - Снежный покров - Высота снежного покрова, см. При наведении курсора мыши на число - состояние снежного покрова и степень покрытия местности в баллах.